Anderson, SC

7:24 PM EST on December 15, 2017 (GMT -0500)
Anderson Regional

Weather History for KAND - December, 2013

Change the Weather History Date:

Thursday, December 5, 2013

  Actual Average Record
Temperature  
Mean Temperature 64 °F -  
Max Temperature 69 °F 56 °F 75 °F (1977)
Min Temperature 60 °F 33 °F 19 °F (1969)
Growing Degree Days 14 (Base 50)    
Moisture  
Dew Point 64 °F    
Average Humidity 95    
Maximum Humidity 100    
Minimum Humidity 83    
Precipitation  
Precipitation 0.18 in - - ()
Sea Level Pressure  
Sea Level Pressure 30.04 in    
Wind  
Wind Speed 5 mph (South)    
Max Wind Speed 14 mph    
Max Gust Speed 20 mph    
Visibility 8 miles    
Events Fog , Rain    
Averages and records for this station are not official NWS values.
T = Trace of Precipitation, MM = Missing Value Source: NWS Daily Summary

Daily Weather History Graph

Daily Weather History Graph

Search for Another Location

Airport or City:

Trip Planner

Search our weather history database for the weather conditions in past years. The results will help you decide how hot, cold, wet, or windy it might be!

Date:

Astronomy

Dec. 05, 2013 Rise Set
Actual Time 7:22 AM EST 5:20 PM EST
Civil Twilight 6:55 AM EST 5:47 PM EST
Nautical Twilight 6:23 AM EST 6:19 PM EST
Astronomical Twilight 5:53 AM EST 6:49 PM EST
Moon 9:45 AM EST (12/5) 8:35 PM EST (12/5)
Length of Visible Light 10h 52m
Length of Day
9h 57m
Waxing Crescent, 10% of the Moon is Illuminated
Dec 5
Waxing Crescent
Dec 9
First Quarter
Dec 17
Full
Dec 25
Last Quarter
Jan 1
New

Hourly Weather History & Observations

Time (EST) Temp. Dew Point Humidity Pressure Visibility Wind Dir Wind Speed Gust Speed Precip Events Conditions
12:04 AM 60.8 °F 60.8 °F 100% 30.06 in 0.5 mi Calm Calm - 0.00 in Fog , Rain Light Rain
12:16 AM 60.8 °F 60.8 °F 100% 30.07 in 0.8 mi Calm Calm - 0.00 in   Overcast
12:22 AM 60.8 °F 60.8 °F 100% 30.07 in 2.0 mi Calm Calm - 0.00 in   Overcast
12:25 AM 60.8 °F 60.8 °F 100% 30.07 in 3.0 mi Calm Calm - 0.00 in   Overcast
12:52 AM 60.8 °F 60.8 °F 100% 30.07 in 2.5 mi South 3.5 mph - 0.01 in Rain Light Rain
12:56 AM 61.0 °F 61.0 °F 100% 30.06 in 2.5 mi South 4.6 mph - 0.01 in Rain Light Rain
1:12 AM 60.8 °F 60.8 °F 100% 30.06 in 4.0 mi South 4.6 mph - 0.02 in Rain Light Rain
1:56 AM 61.0 °F 61.0 °F 100% 30.04 in 8.0 mi South 8.1 mph - 0.03 in Rain Light Rain
2:56 AM 62.1 °F 62.1 °F 100% 30.04 in 9.0 mi South 9.2 mph - 0.02 in Rain Light Rain
3:56 AM 62.1 °F 62.1 °F 100% 30.04 in 5.0 mi SSW 6.9 mph - 0.00 in   Overcast
4:56 AM 62.1 °F 62.1 °F 100% 30.04 in 3.0 mi SSW 5.8 mph - 0.02 in Rain Light Rain
5:38 AM 62.6 °F 62.6 °F 100% 30.06 in 2.0 mi South 4.6 mph - 0.00 in   Overcast
5:51 AM 62.6 °F 62.6 °F 100% 30.06 in 3.0 mi South 3.5 mph - 0.01 in Rain Light Rain
5:56 AM 62.1 °F 62.1 °F 100% 30.05 in 3.0 mi SSW 4.6 mph - 0.01 in Rain Light Rain
6:56 AM 63.0 °F 62.1 °F 97% 30.06 in 10.0 mi South 6.9 mph - 0.03 in Rain Light Rain
7:56 AM 63.0 °F 62.1 °F 97% 30.08 in 7.0 mi South 5.8 mph - 0.02 in   Overcast
8:56 AM 63.0 °F 63.0 °F 100% 30.09 in 6.0 mi SSW 4.6 mph - 0.01 in   Overcast
9:56 AM 64.0 °F 63.0 °F 96% 30.10 in 6.0 mi South 6.9 mph - N/A   Overcast
10:56 AM 64.0 °F 64.0 °F 100% 30.10 in 8.0 mi SSW 8.1 mph - N/A   Overcast
11:45 AM 66.2 °F 64.4 °F 94% 30.09 in 10.0 mi SSW 6.9 mph - N/A   Overcast
11:56 AM 66.0 °F 64.0 °F 93% 30.08 in 10.0 mi SSW 8.1 mph - N/A   Overcast
12:56 PM 66.9 °F 64.9 °F 93% 30.05 in 9.0 mi South 5.8 mph - N/A   Overcast
1:44 PM 68.0 °F 64.4 °F 88% 30.04 in 10.0 mi South 8.1 mph - N/A   Overcast
1:56 PM 68.0 °F 64.9 °F 90% 30.02 in 10.0 mi South 4.6 mph - N/A   Overcast
2:40 PM 69.8 °F 66.2 °F 88% 30.03 in 10.0 mi South 6.9 mph - N/A   Overcast
2:48 PM 69.8 °F 64.4 °F 83% 30.03 in 10.0 mi SSW 9.2 mph - N/A   Overcast
2:56 PM 68.0 °F 64.9 °F 90% 30.02 in 10.0 mi SSW 8.1 mph - N/A   Overcast
3:29 PM 69.8 °F 66.2 °F 88% 30.02 in 10.0 mi South 6.9 mph - N/A   Overcast
3:42 PM 69.8 °F 66.2 °F 88% 30.03 in 10.0 mi South 9.2 mph - N/A   Mostly Cloudy
3:56 PM 69.1 °F 66.0 °F 90% 30.01 in 10.0 mi South 8.1 mph - N/A   Mostly Cloudy
4:23 PM 68.0 °F 66.2 °F 94% 30.04 in 10.0 mi South 6.9 mph - N/A   Mostly Cloudy
4:56 PM 66.9 °F 64.9 °F 93% 30.01 in 10.0 mi SSE 9.2 mph - N/A   Mostly Cloudy
5:08 PM 66.2 °F 64.4 °F 94% 30.03 in 10.0 mi South 8.1 mph - N/A   Mostly Cloudy
5:31 PM 66.2 °F 64.4 °F 94% 30.04 in 10.0 mi SSE 6.9 mph - N/A   Overcast
5:38 PM 66.2 °F 66.2 °F 100% 30.04 in 10.0 mi SSE 6.9 mph - N/A   Overcast
5:56 PM 66.9 °F 66.0 °F 97% 30.02 in 10.0 mi SSE 6.9 mph - N/A   Overcast
6:56 PM 66.9 °F 66.0 °F 97% 30.02 in 9.0 mi SSE 10.4 mph - N/A   Overcast
7:56 PM 68.0 °F 66.9 °F 96% 30.02 in 10.0 mi South 10.4 mph - 0.00 in   Overcast
8:56 PM 69.1 °F 66.9 °F 93% 30.01 in 10.0 mi South 12.7 mph - N/A   Overcast
9:56 PM 69.1 °F 66.9 °F 93% 30.01 in 10.0 mi South 13.8 mph - 0.00 in Rain Light Rain
10:17 PM 69.8 °F 66.2 °F 88% 30.03 in 10.0 mi SSW 10.4 mph - 0.01 in Rain Light Rain
10:26 PM 68.0 °F 66.2 °F 94% 30.04 in 10.0 mi SSW 13.8 mph - 0.01 in Rain Light Rain
10:56 PM 68.0 °F 66.9 °F 96% 30.02 in 10.0 mi SSW 11.5 mph - 0.01 in   Overcast
11:35 PM 68.0 °F 66.2 °F 94% 30.04 in 8.0 mi SSW 12.7 mph - 0.01 in Rain Light Rain
11:44 PM 68.0 °F 66.2 °F 94% 30.04 in 5.0 mi South 9.2 mph 18.4 mph 0.02 in Rain Light Rain
11:52 PM 68.0 °F 66.2 °F 94% 30.03 in 8.0 mi South 11.5 mph 19.6 mph 0.02 in Rain Light Rain
11:56 PM 68.0 °F 66.9 °F 96% 30.02 in 9.0 mi South 12.7 mph 19.6 mph 0.02 in Rain Light Rain